Location: Kuffner-Sternwarte
(48.2130°N, 16.2960°E)
Time: 04:36:49
(UTC+02:00)

ACS3 Solar Sail - Pass Details

Date: 28 September 2024
Orbit: 963 x 1036 km, 97.4° (Epoch: 04 October)

Event Time Altitude Azimuth Distance (km) Brightness Sun altitude
Exits shadow 19:59:46 15° 130° (SE) 2,467 3.4 -14.1°
Maximum altitude 20:04:38 42° 66° (ENE) 1,448 2.3 -14.9°
Drops below altitude 10° 20:10:33 10° 359° (N) 2,826 4.4 -15.9°
Sets 20:13:10 0° 353° (N) 3,773 5.2 -16.3°
